{"data":{"norad_id":67211,"epoch":"2026-05-24T23:33:37.050048Z","epoch_age_seconds":69775,"freshness":"FRESH","line1":"1 67211U 25304V   26144.98167882  .00004694  00000+0  40078-3 0  9991","line2":"2 67211  70.0014 342.0532 0002192 264.4181  95.6728 14.98342365 25313","mean_motion":14.98342365,"eccentricity":0.0002192,"inclination_deg":70.0014,"raan_deg":342.0532,"arg_perigee_deg":264.4181,"mean_anomaly_deg":95.6728,"bstar":0.00040078,"rev_number":2531,"period_min":96.106206007196,"perigee_km":570.49417956483,"apogee_km":573.54112736491,"semimajor_km":6950.1546534649,"source":"CELESTRAK","updated_at":"2026-05-25T13:38:21.512256Z"}}